Greenville, ME

9:54 PM EDT on October 21, 2019 (GMT -0400)
Greenville

Weather History for KGNR - August, 2019

Change the Weather History Date:

Sunday, August 11, 2019

  Actual Average (KMLT) Record (KMLT)
Temperature  
Mean Temperature 62 °F 67 °F  
Max Temperature 71 °F 78 °F 96 °F (1944)
Min Temperature 54 °F 56 °F 41 °F (1927)
Degree Days  
Heating Degree Days 3 1  
Month to date heating degree days 11  
Since 1 June heating degree days 151  
Since 1 July heating degree days 35  
Cooling Degree Days 0 3  
Month to date cooling degree days 33  
Year to date cooling degree days 205  
Since 1 June cooling degree days 199  
Growing Degree Days 12 (Base 50)    
Moisture  
Dew Point 51 °F    
Average Humidity 68    
Maximum Humidity 86    
Minimum Humidity 49    
Precipitation  
Precipitation 0.00 in 0.11 in 2.43 in (1998)
Month to date precipitation 1.35  
Year to date precipitation 24.34  
Sea Level Pressure  
Sea Level Pressure 29.81 in    
Wind  
Wind Speed 8 mph (NW)    
Max Wind Speed 16 mph    
Max Gust Speed 26 mph    
T = Trace of Precipitation, MM = Missing Value Source: NWS Daily Summary

Daily Weather History Graph

Daily Weather History Graph

Search for Another Location

Airport or City:

Astronomy

Aug. 11, 2019 Rise Set
Actual Time 5:33 AM EDT 7:52 PM EDT
Civil Twilight 5:01 AM EDT 8:25 PM EDT
Nautical Twilight 4:20 AM EDT 9:05 PM EDT
Astronomical Twilight 3:34 AM EDT 9:51 PM EDT
Moon 5:35 PM EDT (8/11) 1:45 AM EDT (8/11)
Length of Visible Light 15h 24m
Length of Day
14h 18m
Waxing Gibbous, 87% of the Moon is Illuminated
Aug 11
Waxing Gibbous
Aug 15
Full
Aug 23
Last Quarter
Aug 30
New
Sep 5
First Quarter

Hourly Weather History & Observations

Time (EDT) Temp. Dew Point Humidity Pressure Visibility Wind Dir Wind Speed Gust Speed Precip Events Conditions
12:56 AM 54.0 °F 50.0 °F 86% 29.77 in - NW 9.2 mph - N/A   Unknown
1:56 AM 54.0 °F 50.0 °F 86% 29.78 in - NW 9.2 mph 17.3 mph N/A   Unknown
2:56 AM 55.0 °F 50.0 °F 83% 29.78 in - NW 13.8 mph - N/A   Unknown
3:56 AM 55.0 °F 50.0 °F 83% 29.78 in - NW 8.1 mph - N/A   Unknown
4:56 AM 55.0 °F 50.0 °F 83% 29.80 in - Variable 5.8 mph - N/A   Unknown
6:56 AM 55.9 °F 50.0 °F 80% 29.83 in - Calm Calm - N/A   Unknown
7:56 AM 55.9 °F 51.1 °F 84% 29.84 in - Variable 5.8 mph - N/A   Unknown
8:56 AM 57.0 °F 51.1 °F 81% 29.84 in - Variable 3.5 mph - N/A   Unknown
9:56 AM 59.0 °F 51.1 °F 75% 29.84 in - Variable 4.6 mph - N/A   Unknown
10:56 AM 61.0 °F 50.0 °F 67% 29.83 in - NW 13.8 mph 26.5 mph N/A   Unknown
11:56 AM 64.0 °F 52.0 °F 65% 29.83 in - WNW 8.1 mph 21.9 mph N/A   Unknown
12:56 PM 66.9 °F 51.1 °F 57% 29.81 in - WNW 11.5 mph 21.9 mph N/A   Unknown
1:56 PM 68.0 °F 48.9 °F 50% 29.80 in - NW 16.1 mph 24.2 mph N/A   Unknown
2:56 PM 66.9 °F 50.0 °F 54% 29.81 in - NW 9.2 mph 21.9 mph N/A   Unknown
3:56 PM 66.0 °F 48.9 °F 54% 29.81 in - WNW 6.9 mph - N/A   Unknown
4:56 PM 70.0 °F 50.0 °F 49% 29.80 in - WNW 12.7 mph 21.9 mph N/A   Unknown
5:56 PM 69.1 °F 50.0 °F 51% 29.81 in - WNW 11.5 mph 20.7 mph N/A   Unknown
6:56 PM 66.9 °F 50.0 °F 54% 29.81 in - WNW 8.1 mph 19.6 mph N/A   Unknown
7:56 PM 64.9 °F 51.1 °F 61% 29.82 in - Variable 6.9 mph - N/A   Unknown
8:56 PM 64.9 °F 51.1 °F 61% 29.83 in - WNW 8.1 mph - N/A   Unknown
9:56 PM 66.0 °F 52.0 °F 60% 29.83 in - Variable 3.5 mph 18.4 mph N/A   Unknown
10:56 PM 66.0 °F 53.1 °F 63% 29.82 in - Variable 3.5 mph - N/A   Unknown
11:56 PM 63.0 °F 53.1 °F 70% 29.83 in - Calm Calm - N/A   Unknown